Indian Mountain, AK

1:24 PM AKDT on March 27, 2017 (GMT -0800)
Indian Mountain

Weather History for PAIM - September, 2013

Change the Weather History Date:

Sunday, September 8, 2013

  Actual Average Record
Temperature  
Mean Temperature 48 °F -  
Max Temperature 54 °F 49 °F 63 °F (2006)
Min Temperature 42 °F 35 °F 29 °F (2014)
Degree Days  
Heating Degree Days 18    
Moisture  
Dew Point 41 °F    
Average Humidity 75    
Maximum Humidity 88    
Minimum Humidity 61    
Precipitation  
Precipitation 0.00 in - - ()
Sea Level Pressure  
Sea Level Pressure 29.66 in    
Wind  
Wind Speed 4 mph (NE)    
Max Wind Speed 8 mph    
Max Gust Speed -    
Visibility 10 miles    
Events      
Averages and records for this station are not official NWS values.
T = Trace of Precipitation, MM = Missing Value Source: NWS Daily Summary

Daily Weather History Graph

Daily Weather History Graph

Search for Another Location

Airport or City:

Trip Planner

Search our weather history database for the weather conditions in past years. The results will help you decide how hot, cold, wet, or windy it might be!

Date:

Astronomy

Sep. 08, 2013 Rise Set
Actual Time 7:14 AM AKDT 9:08 PM AKDT
Civil Twilight 6:19 AM AKDT 10:02 PM AKDT
Nautical Twilight 5:04 AM AKDT 11:15 PM AKDT
Astronomical Twilight 2:57 AM AKDT 1:12 AM AKDT
Moon 12:31 PM AKDT (9/8) 8:56 PM AKDT (9/8)
Length of Visible Light 15h 43m
Length of Day
13h 54m
Waxing Crescent, 12% of the Moon is Illuminated
Sep 8
Waxing Crescent
Sep 12
First Quarter
Sep 19
Full
Sep 26
Last Quarter
Oct 4
New

Hourly Weather History & Observations

Time (AKDT) Temp. Windchill Dew Point Humidity Pressure Visibility Wind Dir Wind Speed Gust Speed Precip Events Conditions
12:55 AM 42.8 °F 40.1 °F 38.1 °F 84% 29.66 in 10.0 mi Variable 4.6 mph - N/A   Mostly Cloudy
1:55 AM 43.7 °F 42.1 °F 38.7 °F 82% 29.65 in 10.0 mi NW 3.5 mph - N/A   Mostly Cloudy
2:55 AM 45.9 °F - 40.3 °F 81% 29.64 in 10.0 mi Variable 2.3 mph - N/A   Mostly Cloudy
3:21 AM 46.4 °F 45.2 °F 41.0 °F 81% 29.63 in 10.0 mi Variable 3.5 mph - N/A   Mostly Cloudy
3:55 AM 46.9 °F - 41.0 °F 80% 29.63 in 10.0 mi Variable 3.5 mph - N/A   Mostly Cloudy
4:55 AM 47.7 °F - 42.3 °F 82% 29.62 in 10.0 mi NNE 6.9 mph - N/A   Overcast
5:55 AM 47.8 °F - 41.9 °F 80% 29.63 in 10.0 mi NE 8.1 mph - N/A   Overcast
6:55 AM 46.6 °F - 42.1 °F 84% 29.62 in 10.0 mi Variable 2.3 mph - N/A   Mostly Cloudy
7:21 AM 48.2 °F - 41.0 °F 76% 29.62 in 10.0 mi Variable 3.5 mph - N/A   Overcast
7:55 AM 46.9 °F - 41.5 °F 81% 29.62 in 10.0 mi Variable 3.5 mph - N/A   Mostly Cloudy
8:55 AM 47.7 °F - 41.2 °F 78% 29.63 in 10.0 mi Variable 4.6 mph - N/A   Mostly Cloudy
9:55 AM 48.2 °F - 41.2 °F 77% 29.64 in 10.0 mi Variable 3.5 mph - N/A   Mostly Cloudy
10:55 AM 49.3 °F - 41.4 °F 74% 29.64 in 10.0 mi Variable 5.8 mph - N/A   Mostly Cloudy
11:55 AM 51.6 °F - 39.9 °F 64% 29.64 in 10.0 mi Variable 5.8 mph - N/A   Partly Cloudy
12:55 PM 50.9 °F - 39.7 °F 66% 29.66 in 10.0 mi Variable 6.9 mph - N/A   Mostly Cloudy
1:55 PM 51.6 °F - 39.9 °F 64% 29.67 in 10.0 mi SE 5.8 mph - N/A   Mostly Cloudy
2:55 PM 53.1 °F - 40.6 °F 63% 29.66 in 10.0 mi Variable 3.5 mph - N/A   Overcast
3:55 PM 53.6 °F - 40.3 °F 61% 29.67 in 10.0 mi East 6.9 mph - N/A   Mostly Cloudy
4:01 PM 53.6 °F - 41.0 °F 62% 29.67 in 10.0 mi Variable 3.5 mph - N/A   Mostly Cloudy
4:55 PM 52.7 °F - 40.3 °F 63% 29.68 in 10.0 mi Variable 2.3 mph - N/A   Overcast
5:55 PM 53.1 °F - 40.6 °F 63% 29.69 in 10.0 mi SE 2.3 mph - N/A   Overcast
6:55 PM 53.1 °F - 41.7 °F 65% 29.70 in 10.0 mi Variable 1.2 mph - N/A   Overcast
7:55 PM 51.8 °F - 43.5 °F 73% 29.71 in 10.0 mi Variable 1.2 mph - N/A   Overcast
8:55 PM 49.8 °F - 43.5 °F 79% 29.72 in 10.0 mi WSW 2.3 mph - N/A   Scattered Clouds
9:55 PM 45.3 °F - 41.9 °F 88% 29.74 in 10.0 mi North 2.3 mph - N/A   Mostly Cloudy
10:55 PM 44.8 °F 43.3 °F 41.0 °F 87% 29.75 in 10.0 mi Variable 3.5 mph - N/A   Mostly Cloudy
11:55 PM 43.5 °F 41.9 °F 39.9 °F 87% 29.75 in 10.0 mi NNW 3.5 mph - N/A   Overcast